Latest Coastal Weather Observations for Holmes Reef

IDQ60701

Issued at 9:51 am EST Friday 9 December 2016 (issued every 10 minutes, with the page automatically refreshed every 10 minutes)

About coastal observations | Map of coastal stations | Coastal observations for QLD | Marine services | Other Formats
Station Details ID: 200732 Name: HOLMES REEF Lat: -16.47 Lon: 147.87 Height: 1.9 m
Data from the previous 72 hours. | See also: Recent months at Holmes Reef
Date/Time
EST
Temp
°C
Wind Pressure Rain since
9am
mm
Weather Cloud Vis
km
Sea
Height
m
Swell
Dir  Spd
kts
Gust
kts
hPa Trend Height
m
Period
s
Dir
09/09:30am 27.3 E 9 11 1010.7 - - - - - - - - -
09/09:15am 27.3 E 10 - 1010.2 - - - - - - - - -
09/09:00am 27.4 E 8 9 1010.7 - - - - - - - - -
09/08:30am 27.4 ESE 8 9 1010.7 - - - - - - - - -
09/08:15am 27.5 ESE 7 - 1010.5 - - - - - - - - -
09/08:00am 27.4 ESE 8 9 1010.6 - - - - - - - - -
09/07:30am 27.3 ESE 8 9 1010.7 - - - - - - - - -
09/07:15am 27.3 ESE 8 - 1010.3 - - - - - - - - -
09/07:00am 27.2 E 7 9 1010.4 - - - - - - - - -
09/06:30am 27.4 CALM 0 2 1010.4 - - - - - - - - -
09/06:15am 27.1 CALM 0 - 1009.9 - - - - - - - - -
09/06:00am 26.9 CALM 0 1 1010.0 - - - - - - - - -
09/05:30am 26.5 CALM 0 3 1009.8 - - - - - - - - -
09/05:15am 26.6 CALM 0 - 1009.3 - - - - - - - - -
09/05:00am 26.7 CALM 0 2 1009.4 - - - - - - - - -
09/04:30am 26.7 CALM 0 1 1009.1 - - - - - - - - -
09/04:15am 26.6 CALM 0 - 1008.9 - - - - - - - - -
09/04:00am 26.8 CALM 0 2 1009.1 - - - - - - - - -
09/03:30am 26.7 CALM 0 2 1009.2 - - - - - - - - -
09/03:15am 26.6 CALM 0 - 1008.9 - - - - - - - - -
09/03:00am 26.7 CALM 0 2 1009.2 - - - - - - - - -
09/02:30am 26.6 CALM 0 3 1009.1 - - - - - - - - -
09/02:15am 26.7 CALM 0 - 1008.8 - - - - - - - - -
09/02:00am 26.8 CALM 0 2 1009.1 - - - - - - - - -
09/01:30am 26.7 CALM 0 2 1009.2 - - - - - - - - -
09/01:15am 26.9 CALM 0 - 1008.9 - - - - - - - - -
09/01:00am 26.8 CALM 0 2 1009.3 - - - - - - - - -
09/12:30am 26.9 CALM 0 1 1009.6 - - - - - - - - -
09/12:15am 27.0 CALM 0 - 1009.5 - - - - - - - - -
09/12:00am 27.1 CALM 0 3 1010.1 - - - - - - - - -
 
Date/Time
EST
Temp
°C
Wind Pressure Rain since
9am
mm
Weather Cloud Vis
km
Sea
Height
m
Swell
Dir  Spd
kts
Gust
kts
hPa Trend Height
m
Period
s
Dir
08/11:30pm 27.0 CALM 0 3 1010.3 - - - - - - - - -
08/11:15pm 27.0 CALM 0 - 1010.0 - - - - - - - - -
08/11:00pm 27.1 ENE 1 2 1010.5 - - - - - - - - -
08/10:30pm 27.0 CALM 0 2 1010.5 - - - - - - - - -
08/10:15pm 27.0 E 1 - 1010.3 - - - - - - - - -
08/10:00pm 27.2 E 1 2 1010.6 - - - - - - - - -
08/09:30pm 27.1 E 1 3 1010.4 - - - - - - - - -
08/09:15pm 27.1 E 1 - 1010.0 - - - - - - - - -
08/09:00pm 27.2 E 1 2 1010.3 - - - - - - - - -
08/08:30pm 27.2 E 1 2 1010.3 - - - - - - - - -
08/08:15pm 27.1 E 1 - 1009.9 - - - - - - - - -
08/08:00pm 27.0 E 1 2 1010.1 - - - - - - - - -
08/07:30pm 27.2 E 1 3 1009.8 - - - - - - - - -
08/07:15pm 27.1 E 1 - 1009.4 - - - - - - - - -
08/07:00pm 27.1 E 1 3 1009.6 - - - - - - - - -
08/06:30pm 27.2 E 1 3 1009.3 - - - - - - - - -
08/06:15pm 26.9 ESE 12 - 1008.8 - - - - - - - - -
08/06:00pm 27.1 E 11 13 1009.0 - - - - - - - - -
08/05:30pm 27.2 E 12 14 1008.7 - - - - - - - - -
08/05:15pm 27.3 ESE 12 - 1008.2 - - - - - - - - -
08/05:00pm 27.2 ESE 11 13 1008.4 - - - - - - - - -
08/04:30pm 27.2 ESE 11 13 1008.3 - - - - - - - - -
08/04:15pm 27.4 ESE 11 - 1008.1 - - - - - - - - -
08/04:00pm 27.3 ESE 11 13 1008.5 - - - - - - - - -
08/03:30pm 27.3 ESE 11 12 1008.5 - - - - - - - - -
08/03:15pm 27.2 ESE 11 - 1008.3 - - - - - - - - -
08/03:00pm 27.4 ESE 10 12 1008.8 - - - - - - - - -
08/02:30pm 27.3 E 11 12 1009.0 - - - - - - - - -
08/02:15pm 27.4 E 10 - 1008.8 - - - - - - - - -
08/02:00pm 27.3 E 11 12 1009.1 - - - - - - - - -
08/01:30pm 27.3 ESE 10 12 1009.3 - - - - - - - - -
08/01:15pm 27.3 ESE 11 - 1009.1 - - - - - - - - -
08/01:00pm 27.6 ESE 11 13 1009.6 - - - - - - - - -
08/12:30pm 27.2 ESE 11 13 1009.8 - - - - - - - - -
08/12:15pm 27.3 ESE 11 - 1009.7 - - - - - - - - -
08/12:00pm 27.5 E 11 14 1010.1 - - - - - - - - -
08/11:30am 27.2 E 12 14 1010.5 - - - - - - - - -
08/11:15am 27.5 E 12 - 1010.3 - - - - - - - - -
08/11:00am 27.4 E 13 15 1010.6 - - - - - - - - -
08/10:30am 27.3 E 13 15 1010.8 - - - - - - - - -
08/10:15am 27.5 E 12 - 1010.6 - - - - - - - - -
08/10:00am 27.5 E 13 15 1011.0 - - - - - - - - -
08/09:30am 27.4 E 13 14 1010.9 - - - - - - - - -
08/09:15am 27.4 E 12 - 1010.5 - - - - - - - - -
08/09:00am 27.3 E 13 15 1010.9 - - - - - - - - -
08/08:30am 27.3 E 13 15 1010.9 - - - - - - - - -
08/08:15am 27.3 E 13 - 1010.5 - - - - - - - - -
08/08:00am 27.5 E 13 15 1010.7 - - - - - - - - -
08/07:30am 27.5 E 12 14 1010.8 - - - - - - - - -
08/07:15am 27.4 E 12 - 1010.4 - - - - - - - - -
08/07:00am 27.4 E 12 15 1010.7 - - - - - - - - -
08/06:30am 27.5 E 13 16 1010.5 - - - - - - - - -
08/06:15am 27.2 E 13 - 1010.0 - - - - - - - - -
08/06:00am 27.1 E 14 15 1010.2 - - - - - - - - -
08/05:30am 27.0 E 13 15 1009.8 - - - - - - - - -
08/05:15am 27.1 E 13 - 1009.4 - - - - - - - - -
08/05:00am 26.9 E 13 14 1009.5 - - - - - - - - -
08/04:30am 26.9 E 2 3 1009.6 - - - - - - - - -
08/04:15am 27.2 E 1 - 1009.2 - - - - - - - - -
08/04:00am 27.0 E 2 3 1009.4 - - - - - - - - -
08/03:30am 27.1 E 2 3 1009.3 - - - - - - - - -
08/03:15am 27.1 E 2 - 1008.9 - - - - - - - - -
08/03:00am 27.0 E 2 3 1009.1 - - - - - - - - -
08/02:30am 27.0 E 2 3 1009.4 - - - - - - - - -
08/02:15am 26.9 E 2 - 1009.2 - - - - - - - - -
08/02:00am 27.1 E 2 3 1009.5 - - - - - - - - -
08/01:30am 27.1 E 1 3 1009.7 - - - - - - - - -
08/01:15am 27.0 E 1 - 1009.6 - - - - - - - - -
08/01:00am 27.1 E 1 3 1010.2 - - - - - - - - -
08/12:30am 27.3 E 1 3 1010.6 - - - - - - - - -
08/12:15am 27.2 E 1 - 1010.4 - - - - - - - - -
08/12:00am 27.3 E 1 3 1010.9 - - - - - - - - -
 
Date/Time
EST
Temp
°C
Wind Pressure Rain since
9am
mm
Weather Cloud Vis
km
Sea
Height
m
Swell
Dir  Spd
kts
Gust
kts
hPa Trend Height
m
Period
s
Dir
07/11:30pm 27.2 E 2 3 1011.2 - - - - - - - - -
07/11:15pm 27.1 E 2 - 1011.0 - - - - - - - - -
07/11:00pm 27.4 E 1 3 1011.4 - - - - - - - - -
07/10:30pm 27.3 E 1 3 1011.6 - - - - - - - - -
07/10:15pm 27.3 E 1 - 1011.1 - - - - - - - - -
07/10:00pm 27.4 ESE 1 3 1011.4 - - - - - - - - -
07/09:30pm 27.0 E 1 3 1011.3 - - - - - - - - -
07/09:15pm 27.5 ESE 2 - 1011.0 - - - - - - - - -
07/09:00pm 27.4 ESE 1 3 1011.3 - - - - - - - - -
07/08:30pm 27.3 ESE 2 3 1011.1 - - - - - - - - -
07/08:15pm 27.5 ESE 2 - 1010.8 - - - - - - - - -
07/08:00pm 27.5 ESE 1 3 1011.0 - - - - - - - - -
07/07:30pm 27.3 ESE 2 3 1011.0 - - - - - - - - -
07/07:15pm 27.4 SE 1 - 1010.7 - - - - - - - - -
07/07:00pm 27.3 SE 1 4 1010.9 - - - - - - - - -
07/06:30pm 27.3 SE 13 15 1010.8 - - - - - - - - -
07/06:15pm 27.5 SE 14 - 1010.4 - - - - - - - - -
07/06:00pm 27.6 SE 13 15 1010.6 - - - - - - - - -
07/05:30pm 27.5 SE 13 15 1010.4 - - - - - - - - -
07/05:15pm 27.5 SE 14 - 1010.0 - - - - - - - - -
07/05:00pm 27.6 SE 14 16 1010.2 - - - - - - - - -
07/04:30pm 27.4 SE 13 15 1010.0 - - - - - - - - -
07/04:15pm 27.6 SE 14 - 1009.6 - - - - - - - - -
07/04:00pm 27.5 SE 13 15 1009.8 - - - - - - - - -
07/03:30pm 27.6 SE 13 15 1010.1 - - - - - - - - -
07/03:15pm 27.5 ESE 14 - 1009.7 - - - - - - - - -
07/03:00pm 27.6 ESE 14 15 1010.1 - - - - - - - - -
07/02:30pm 27.5 ESE 14 15 1010.2 - - - - - - - - -
07/02:15pm 27.5 ESE 13 - 1009.9 - - - - - - - - -
07/02:00pm 27.5 ESE 14 16 1010.4 - - - - - - - - -
07/01:30pm 27.4 ESE 14 15 1010.6 - - - - - - - - -
07/01:15pm 27.4 ESE 13 - 1010.5 - - - - - - - - -
07/01:00pm 27.7 ESE 13 15 1010.9 - - - - - - - - -
07/12:30pm 27.5 ESE 13 15 1011.0 - - - - - - - - -
07/12:15pm 27.4 ESE 14 - 1010.8 - - - - - - - - -
07/12:00pm 27.4 ESE 14 16 1011.2 - - - - - - - - -
07/11:30am 27.4 ESE 13 15 1011.5 - - - - - - - - -
07/11:15am 27.3 ESE 14 - 1011.2 - - - - - - - - -
07/11:00am 27.6 ESE 14 16 1011.6 - - - - - - - - -
07/10:30am 27.3 ESE 14 15 1011.9 - - - - - - - - -
07/10:15am 27.4 ESE 14 - 1011.6 - - - - - - - - -
07/10:00am 27.3 ESE 14 16 1011.8 - - - - - - - - -
07/09:30am 27.2 ESE 14 15 1011.8 - - - - - - - - -
07/09:15am 27.1 ESE 14 - 1011.4 - - - - - - - - -
07/09:00am 27.3 E 14 16 1011.8 - - - - - - - - -
07/08:30am 27.0 E 14 15 1011.6 - - - - - - - - -
07/08:15am 27.0 E 15 - 1011.4 - - - - - - - - -
07/08:00am 27.3 E 15 17 1011.5 - - - - - - - - -
07/07:30am 27.3 E 12 14 1011.2 - - - - - - - - -
07/07:15am 27.2 E 13 - 1010.8 - - - - - - - - -
07/07:00am 27.1 E 12 14 1011.0 - - - - - - - - -
07/06:30am 26.5 E 14 15 1010.7 - - - - - - - - -
07/06:15am 26.4 E 14 - 1010.3 - - - - - - - - -
07/06:00am 26.5 E 15 17 1010.4 - - - - - - - - -
07/05:30am 26.0 ESE 13 14 1009.9 - - - - - - - - -
07/05:15am 25.9 ESE 12 - 1009.4 - - - - - - - - -
07/05:00am 25.5 ESE 15 21 1009.5 - - - - - - - - -
07/04:30am 25.1 E 15 18 1009.2 - - - - - - - - -
07/04:15am 25.0 E 18 - 1008.9 - - - - - - - - -
07/04:00am 25.4 ENE 16 21 1009.2 - - - - - - - - -
07/03:30am 24.9 ENE 18 20 1009.2 - - - - - - - - -
07/03:15am 26.6 ESE 13 - 1008.7 - - - - - - - - -
07/03:00am 26.5 ESE 13 16 1009.1 - - - - - - - - -
07/02:30am 26.5 E 14 16 1009.3 - - - - - - - - -
07/02:15am 26.5 E 15 - 1008.9 - - - - - - - - -
07/02:00am 26.8 E 14 16 1009.3 - - - - - - - - -
07/01:30am 26.7 E 15 17 1009.5 - - - - - - - - -
07/01:15am 26.6 E 15 - 1009.4 - - - - - - - - -
07/01:00am 26.6 ESE 16 18 1010.1 - - - - - - - - -
07/12:30am 26.7 ESE 15 17 1010.5 - - - - - - - - -
07/12:15am 26.6 ESE 15 - 1010.2 - - - - - - - - -
07/12:00am 26.8 ESE 15 17 1010.7 - - - - - - - - -
 
Date/Time
EST
Temp
°C
Wind Pressure Rain since
9am
mm
Weather Cloud Vis
km
Sea
Height
m
Swell
Dir  Spd
kts
Gust
kts
hPa Trend Height
m
Period
s
Dir
06/11:30pm 26.9 E 15 18 1011.0 - - - - - - - - -
06/11:15pm 26.7 E 16 - 1011.0 - - - - - - - - -
06/11:00pm 26.8 ESE 16 18 1011.3 - - - - - - - - -
06/10:30pm 26.8 E 16 19 1011.5 - - - - - - - - -
06/10:15pm 26.8 E 15 - 1011.1 - - - - - - - - -
06/10:00pm 26.9 E 17 19 1011.3 - - - - - - - - -
06/09:30pm 26.9 E 17 19 1011.3 - - - - - - - - -
06/09:15pm 26.9 E 17 - 1011.0 - - - - - - - - -
06/09:00pm 26.9 E 19 21 1011.2 - - - - - - - - -
06/08:30pm 27.0 E 21 23 1011.0 - - - - - - - - -
06/08:15pm 27.0 ESE 20 - 1010.7 - - - - - - - - -
06/08:00pm 27.0 ESE 18 21 1010.9 - - - - - - - - -
06/07:30pm 27.0 ESE 17 19 1011.1 - - - - - - - - -
06/07:15pm 27.1 E 19 - 1010.9 - - - - - - - - -
06/07:00pm 27.1 ESE 19 22 1011.2 - - - - - - - - -
06/06:30pm 27.3 ESE 19 22 1011.0 - - - - - - - - -
06/06:15pm 27.1 SE 20 - 1010.4 - - - - - - - - -
06/06:00pm 27.1 SE 19 22 1010.7 - - - - - - - - -
06/05:30pm 27.1 SE 20 23 1010.4 - - - - - - - - -
06/05:15pm 27.4 SSE 18 - 1010.0 - - - - - - - - -
06/05:00pm 27.2 SSE 18 21 1010.2 - - - - - - - - -
06/04:30pm 27.5 SSE 16 19 1010.1 - - - - - - - - -
06/04:15pm 27.3 SSE 16 - 1009.8 - - - - - - - - -
06/04:00pm 27.2 SE 17 19 1010.1 - - - - - - - - -
06/03:30pm 27.5 SE 16 19 1010.1 - - - - - - - - -
06/03:15pm 27.3 SE 15 - 1010.0 - - - - - - - - -
06/03:00pm 27.2 SE 14 16 1010.6 - - - - - - - - -
06/02:30pm 27.3 SE 13 15 1011.0 - - - - - - - - -
06/02:15pm 27.3 SE 15 - 1010.9 - - - - - - - - -
06/02:00pm 27.2 SE 15 17 1011.3 - - - - - - - - -
06/01:30pm 27.2 SE 14 17 1011.6 - - - - - - - - -
06/01:15pm 27.3 SE 14 - 1011.5 - - - - - - - - -
06/01:00pm 27.3 SE 14 16 1012.1 - - - - - - - - -
06/12:30pm 27.2 SE 13 15 1012.2 - - - - - - - - -
06/12:15pm 27.2 SE 14 - 1012.0 - - - - - - - - -
06/12:00pm 27.2 SE 13 16 1012.5 - - - - - - - - -
06/11:30am 27.2 SE 13 16 1012.9 - - - - - - - - -
06/11:15am 27.2 SE 13 - 1012.8 - - - - - - - - -
06/11:00am 27.1 SE 14 16 1013.3 - - - - - - - - -
06/10:30am 27.2 ESE 15 17 1013.6 - - - - - - - - -
06/10:15am 27.1 SE 14 - 1013.5 - - - - - - - - -
06/10:00am 27.1 ESE 15 18 1013.9 - - - - - - - - -

Other Formats:

Comma delimited format used in spreadsheet applications
http://www.bom.gov.au/fwo/IDQ60701/IDQ60701.94289.axf

JavaScript Object Notation format (JSON) in row-major order
http://www.bom.gov.au/fwo/IDQ60701/IDQ60701.94289.json